This demonstration page uses our WeatherBlox Daily Observations layout. Learn more.

Left ArrowRight Arrow

38.20091, -84.87328

Hourly Observations for January 21, 2016

Temp ( °F °C ) Dew Point ( °F °C ) Humidity (%) Winds ( mph kmh ) Pressure ( in mb ) Visibility ( mi km ) Precip ( " mm )
12:53 am 00:53 Cloudy 21 -6.1 15 -9.4 78 78 ENE 5 7 30.31 1026 10 16 0.00 0.00
1:53 am 01:53 Cloudy 21 -6.1 14 -10 74 74 ENE 6 9 30.32 1027 10 16 0.00 0.00
2:53 am 02:53 Cloudy 20 -6.7 15 -9.4 81 81 SE 5 7 30.33 1027 10 16 0.00 0.00
3:53 am 03:53 Cloudy 20 -6.7 14 -10 78 78 E 5 7 30.32 1027 10 16 0.00 0.00
4:53 am 04:53 Cloudy 20 -6.7 14 -10 78 78 E 8 13 30.31 1027 10 16 0.00 0.00
5:53 am 05:53 Cloudy 20 -6.7 14 -10 78 78 E 6 9 30.32 1027 10 16 0.00 0.00
6:53 am 06:53 Cloudy 19 -7.2 14 -10 81 81 ESE 7 11 30.35 1028 10 16 0.00 0.00
7:26 am 07:26 Cloudy 19 -7.2 14 -10 81 81 E 7 11 30.42 1030 10 16 0.00 0.00
7:53 am 07:53 Cloudy 19 -7.2 14 -10 81 81 E 6 9 30.37 1028 10 16 0.00 0.00
8:53 am 08:53 Cloudy 19 -7.2 14 -10 81 81 E 7 11 30.37 1028 9 14 0.00 0.00
9:53 am 09:53 Cloudy 19 -7.2 14 -10 81 81 ENE 10 17 30.37 1028 10 16 0.00 0.00
10:53 am 10:53 Cloudy 19 -7.2 14 -10 81 81 E 10 17 30.39 1029 10 16 0.00 0.00
11:08 am 11:08 Cloudy 20 -6.7 14 -10 78 78 E 8 13 30.45 1031 10 16 0.00 0.00
11:53 am 11:53 Cloudy 20 -6.7 14 -10 78 78 NE 12 19 30.37 1028 10 16 0.00 0.00
12:53 pm 12:53 Mostly Cloudy 21 -6.1 15 -9.4 78 78 E 13 20 30.32 1027 10 16 0.00 0.00
1:12 pm 13:12 Partly Cloudy 22 -5.6 15 -9.4 75 75 E 12 19 30.36 1028 10 16 0.00 0.00
1:37 pm 13:37 Mostly Cloudy 23 -5 16 -8.9 74 74 E 9 15 30.33 1027 10 16 0.00 0.00
1:53 pm 13:53 Mostly Cloudy 22 -5.6 16 -8.9 78 78 E 13 20 30.30 1026 10 16 0.00 0.00
2:09 pm 14:09 Mostly Sunny 22 -5.6 16 -8.9 78 78 ESE 10 17 30.33 1027 10 16 0.00 0.00
2:53 pm 14:53 Sunny 23 -5 16 -8.9 74 74 E 7 11 30.29 1026 10 16 0.00 0.00
3:53 pm 15:53 Sunny 23 -5 16 -8.9 74 74 E 9 15 30.29 1026 10 16 0.00 0.00
4:53 pm 16:53 Sunny 23 -5 16 -8.9 74 74 ENE 6 9 30.28 1025 10 16 0.00 0.00
5:53 pm 17:53 Clear 23 -5 15 -9.4 72 72 ENE 9 15 30.25 1024 10 16 0.00 0.00
6:53 pm 18:53 Cloudy 24 -4.4 16 -8.9 71 71 ENE 8 13 30.26 1025 10 16 0.00 0.00
7:53 pm 19:53 Mostly Cloudy 24 -4.4 16 -8.9 71 71 NE 9 15 30.25 1025 10 16 0.00 0.00
8:53 pm 20:53 Partly Cloudy 24 -4.4 16 -8.9 71 71 NE 8 13 30.24 1024 10 16 0.00 0.00
9:53 pm 21:53 Mostly Cloudy 24 -4.4 15 -9.4 68 68 NE 8 13 30.22 1023 10 16 0.00 0.00
10:53 pm 22:53 Cloudy 24 -4.4 15 -9.4 68 68 ENE 12 19 30.21 1023 10 16 0.00 0.00
11:53 pm 23:53 Cloudy 24 -4.4 15 -9.4 68 68 ENE 10 17 30.18 1022 10 16 0.00 0.00

Powered by AerisWeather